Location: Bacea
(45.9500°N, 22.6667°E)
Time: 20:08:53
(UTC+00:00)

Okean 2 Rocket - Pass Details

Date: 16 October 2021
Orbit: 617 x 641 km, 82.5° (Epoch: 29 November)

Event Time Altitude Azimuth Distance (km) Brightness Sun altitude
Rises 16:15:29 0° 200° (SSW) 2,892 6.9 -6.7°
Reaches altitude 10° 16:17:45 10° 205° (SSW) 1,994 6.1 -7.1°
Maximum altitude 16:22:04 53° 282° (WNW) 775 4.0 -7.8°
Drops below altitude 10° 16:26:28 10° 0° (N) 2,026 5.7 -8.6°
Sets 16:28:47 0° 5° (N) 2,943 6.4 -9.0°
